{"data":{"norad_id":65395,"epoch":"2026-09-20T08:53:30.600384Z","epoch_age_seconds":126147,"freshness":"FRESH","line1":"1 65395U 25191S   26263.37049306  .00011931  00000+0  37115-3 0  9991","line2":"2 65395  97.2842 129.4677 0000651 167.3111 192.8149 15.33459783 59635","mean_motion":15.33459783,"eccentricity":6.51e-5,"inclination_deg":97.2842,"raan_deg":129.4677,"arg_perigee_deg":167.3111,"mean_anomaly_deg":192.8149,"bstar":0.00037115,"rev_number":5963,"period_min":93.905299373606,"perigee_km":465.05367030817,"apogee_km":465.94471174024,"semimajor_km":6843.6361910242,"source":"CELESTRAK","updated_at":"2026-09-21T09:00:35.600365Z"}}